Weather Roundup
Issued by NWS Springfield, MO

Home | Current Version | Previous Version | Text Only | Print | Product List | Glossary On
Versions: 1 2 3 4 5 6 7 8 9 10 11 12 13 14 15 16 17 18 19 20 21 22 23 24 25 26 27 28 29 30 31 32 33 34 35 36 37 38 39 40 41 42 43 44 45 46 47 48 49 50
000
NZUS99 KSGF 050957
HRRSGF

HOURLY WEATHER
NATIONAL WEATHER SERVICE SPRINGFIELD MO
400 AM CST MON DEC 05 2016

......SGF CWA......

CITY           SKY/WX    TMP DP  RH WIND       PRES   REMARKS
SPRINGFIELD    FOG       31  30  96 S8        30.00F VSB 1/2 WCI  23
JOPLIN         CLOUDY    34  34 100 S8        30.00F WCI  27
WEST PLAINS    CLOUDY    30  30 100 CALM      30.05S FOG
ROLLA          CLOUDY    30  29  96 S7        30.00F FOG     WCI  23

......SURROUNDING SGF CWA......

CITY           SKY/WX    TMP DP  RH WIND       PRES   REMARKS
CHANUTE        CLOUDY    34  33  96 S6        29.98F WCI  29
PARSONS        CLOUDY    35  34  96 S3        29.99F FOG
COFFEYVILLE    CLOUDY    34  33  96 S3        30.00F FOG
EMPORIA        CLEAR     33  32  96 S14       29.93F WCI  23
HARRISON AR    CLOUDY    32  32 100 CALM      30.02F FOG

......KANSAS AND MISSOURI......

CITY           SKY/WX    TMP DP  RH WIND       PRES   REMARKS
KANSAS CTY INT CLEAR     31  28  89 S10       29.92F WCI  22
SEDALIA        CLOUDY    33  31  92 S8        30.01S WCI  26
ST JOSEPH      FOG       26  25  96 CALM      29.91F VSB 1/2
ST LOUIS       CLOUDY    37  32  82 S5        30.05F WCI  33
WICHITA        CLEAR     33  31  92 S12       29.92F WCI  24
TOPEKA         CLEAR     30  27  88 SE3       29.92S FOG
OLATHE         CLEAR     30  29  96 S9        29.94F WCI  22

......TENNESSEE......

CITY           SKY/WX    TMP DP  RH WIND       PRES   REMARKS
MEMPHIS        NOT AVBL
NASHVILLE      CLOUDY    45  40  82 N7        30.05S

......ARKANSAS.......

CITY           SKY/WX    TMP DP  RH WIND       PRES   REMARKS
FAYETTEVILLE   FOG       28  28 100 CALM      30.02F VSB 1/4
FT SMITH       CLOUDY    38  36  92 E3        30.04F
LITTLE ROCK    CLOUDY    41  41 100 N5        30.04F FOG

......OKLAHOMA.......

CITY           SKY/WX    TMP DP  RH WIND       PRES   REMARKS
TULSA          MOCLDY    38  38 100 S3        29.99F
PONCA CITY     CLOUDY    37  34  89 S6        29.96F WCI  32
MCALESTER      CLOUDY    37  34  89 CALM      30.02F FOG
OKLAHOMA CITY  MOCLDY    33  32  96 S6        29.97F FOG     WCI  28

......IOWA............

CITY           SKY/WX    TMP DP  RH WIND       PRES   REMARKS
DES MOINES     NOT AVBL
QUAD CITIES    CLOUDY    34  31  88 S6        29.99S WCI  29

......ILLINOIS........

CITY           SKY/WX    TMP DP  RH WIND       PRES   REMARKS
QUINCY         FOG       32  32 100 CALM      30.00F VSB<1/4
CHICAGO        CLOUDY    33  30  88 W9        29.98S WCI  25




USA.gov is the U.S. government's official web portal to all federal, state and local government web resources and services.